GBTWP-2 Weather Reports


time (UTC)temp
C
wind
direction
speed
KPH
gust
KPH
rain 1hr
cm
rain 24hr
cm
rain mn
cm
humidity
%
barometer
mb
20260506143501 7 38 1.6 3.2 0.00 0.00 0.00 58 1015.2
20260506142502 7 69 1.6 3.2 0.00 0.00 0.00 63 1015.3
20260506142002 7 6 1.6 3.2 0.00 0.00 0.00 61 1015.1
20260506141502 7 23 1.6 3.2 0.00 0.00 0.00 60 1015.0
20260506135001 6 322 3.2 4.8 0.00 0.00 0.00 65 1015.0
20260506134003 6 21 1.6 3.2 0.00 0.00 0.00 66 1015.0
20260506133002 6 58 4.8 8.0 0.00 0.00 0.00 67 1014.7
20260506131502 6 339 1.6 3.2 0.00 0.00 0.00 67 1015.0
20260506131002 6 358 1.6 3.2 0.00 0.00 0.00 67 1014.9
20260506124501 5 34 0.0 0.0 0.00 0.00 0.00 67 1014.6
20260506124002 5 16 1.6 3.2 0.00 0.00 0.00 69 1014.6
20260506123502 5 50 3.2 4.8 0.00 0.00 0.00 69 1014.3
20260506123002 5 61 1.6 4.8 0.00 0.00 0.00 71 1014.3
20260506122501 5 341 3.2 6.4 0.00 0.00 0.00 69 1014.3
20260506122002 5 341 0.0 0.0 0.00 0.00 0.00 70 1014.1
20260506121501 5 21 0.0 0.0 0.00 0.00 0.00 73 1014.2
20260506121002 5 333 0.0 0.0 0.00 0.00 0.00 73 1014.2
20260506120002 5 36 0.0 0.0 0.00 0.00 0.00 73 1013.9
20260506115502 5 36 0.0 0.0 0.00 0.00 0.00 74 1013.8
20260506115002 5 4 0.0 0.0 0.00 0.00 0.00 74 1013.8
20260506114501 5 19 1.6 4.8 0.00 0.00 0.00 76 1013.8
20260506114003 5 15 0.0 0.0 0.00 0.00 0.00 77 1013.5
20260506113502 5 320 0.0 0.0 0.00 0.00 0.00 76 1013.6
20260506112002 3 347 0.0 0.0 0.00 0.00 0.00 80 1013.5
20260506111501 3 359 0.0 0.0 0.00 0.00 0.00 80 1013.1
20260506111002 3 4 0.0 0.0 0.00 0.00 0.00 80 1013.3
20260506110002 3 3 0.0 0.0 0.00 0.00 0.00 83 1013.0
20260506104502 3 351 0.0 0.0 0.00 0.00 0.00 82 1012.5
20260506102502 3 18 0.0 0.0 0.00 0.00 0.00 79 1012.3
20260506102001 3 18 0.0 0.0 0.00 0.00 0.00 80 1012.5
20260506101502 4 19 0.0 0.0 0.00 0.00 0.00 78 1012.3
20260506101001 4 2 0.0 0.0 0.00 0.00 0.00 79 1012.3
20260506100502 4 2 0.0 0.0 0.00 0.00 0.00 79 1012.2
20260506100002 5 3 0.0 0.0 0.00 0.00 0.00 79 1011.9
20260506095503 5 358 0.0 0.0 0.00 0.00 0.00 80 1012.0
20260506095002 5 357 0.0 0.0 0.00 0.00 0.00 80 1011.8
20260506094501 5 12 0.0 0.0 0.00 0.00 0.00 80 1011.8
20260506093502 5 16 0.0 0.0 0.00 0.00 0.00 83 1011.9
20260506093002 5 98 0.0 0.0 0.00 0.00 0.00 85 1011.7
20260506092501 6 31 0.0 0.0 0.00 0.00 0.00 86 1011.8
20260506091501 6 356 0.0 0.0 0.00 0.00 0.00 86 1011.8
20260506091002 5 356 0.0 0.0 0.00 0.00 0.00 86 1011.6
20260506090502 6 356 0.0 0.0 0.00 0.00 0.00 85 1011.8
20260506090002 6 356 0.0 0.0 0.00 0.00 0.00 85 1011.7
20260506085006 5 356 0.0 0.0 0.00 0.00 0.00 85 1011.7
20260506083505 5 356 0.0 0.0 0.00 0.00 0.00 84 1011.7
20260506082002 6 356 0.0 0.0 0.00 0.00 0.00 83 1011.7
20260506081002 6 356 0.0 0.0 0.00 0.00 0.00 81 1011.9
20260506072505 7 1 0.0 0.0 0.00 0.00 0.00 75 1011.7
20260506072005 7 5 0.0 0.0 0.00 0.00 0.00 74 1011.5
20260506071006 7 6 0.0 0.0 0.00 0.00 0.00 73 1011.7
20260506062502 7 1 0.0 0.0 0.00 0.00 0.00 66 1011.6
20260506061505 7 336 0.0 0.0 0.00 0.00 0.00 65 1011.8
20260506061006 8 333 0.0 0.0 0.00 0.00 0.00 64 1011.9
20260506060501 8 332 0.0 0.0 0.00 0.00 0.00 63 1011.8
20260506051002 8 344 0.0 0.0 0.00 0.00 0.00 58 1011.3
20260506050501 8 353 0.0 0.0 0.00 0.00 0.00 59 1011.6
20260506042502 8 16 0.0 0.0 0.00 0.00 0.00 60 1011.2
20260506042001 8 16 0.0 0.0 0.00 0.00 0.00 59 1011.3
20260506040502 8 16 0.0 0.0 0.00 0.00 0.00 59 1011.3
20260506040002 8 16 0.0 0.0 0.00 0.00 0.05 64 1011.4
20260506035001 8 16 0.0 0.0 0.00 0.05 0.05 61 1011.5
20260506034502 8 16 0.0 0.0 0.00 0.05 0.05 64 1011.5
20260506034002 8 16 0.0 0.0 0.00 0.00 0.05 62 1011.5
20260506033502 7 16 0.0 0.0 0.00 0.00 0.05 64 1011.3
20260506033001 7 16 0.0 0.0 0.00 0.00 0.05 69 1011.2
20260506032502 8 16 0.0 0.0 0.00 0.00 0.05 65 1011.3
20260506032001 7 16 0.0 0.0 0.00 0.00 0.05 64 1011.4
20260506031001 7 16 0.0 0.0 0.00 0.00 0.05 67 1011.5
20260506030001 8 16 0.0 0.0 0.00 0.00 0.05 67 1011.4
20260506025502 8 16 0.0 0.0 0.00 0.00 0.05 63 1011.3
20260506024502 8 16 0.0 0.0 0.00 0.00 0.05 63 1011.3
20260506024001 8 16 0.0 0.0 0.00 0.00 0.05 65 1011.2
20260506023502 8 16 0.0 0.0 0.00 0.00 0.05 66 1011.3
20260506023002 8 16 0.0 0.0 0.00 0.00 0.05 62 1011.5
20260506022502 8 16 0.0 0.0 0.00 0.00 0.05 63 1011.2
20260506022002 8 16 0.0 0.0 0.00 0.00 0.05 64 1011.2
20260506021004 8 9 0.0 0.0 0.00 0.00 0.05 62 1011.2
20260506020502 8 339 0.0 0.0 0.00 0.00 0.05 64 1011.2
20260506020002 8 339 0.0 0.0 0.00 0.00 0.05 61 1011.3
20260506015502 9 339 0.0 0.0 0.00 0.00 0.05 62 1010.9
20260506015002 9 339 0.0 0.0 0.00 0.00 0.05 60 1010.9
20260506014502 9 339 0.0 0.0 0.00 0.00 0.05 55 1011.0
20260506014002 10 340 0.0 0.0 0.00 0.00 0.05 56 1010.8
20260506013501 10 340 0.0 0.0 0.00 0.00 0.05 52 1010.7
20260506013002 10 340 0.0 0.0 0.00 0.00 0.05 53 1010.8
20260506012002 10 23 0.0 0.0 0.00 0.00 0.05 51 1010.5
20260506011501 10 280 0.0 0.0 0.00 0.00 0.05 51 1010.7
20260506011002 10 347 0.0 0.0 0.00 0.00 0.05 54 1010.5
20260506010501 10 337 0.0 0.0 0.00 0.00 0.05 51 1010.5
20260506010002 10 337 0.0 0.0 0.00 0.00 0.05 51 1010.7
20260506005002 10 302 0.0 0.0 0.00 0.00 0.05 51 1010.5
20260506003502 10 154 0.0 0.0 0.00 0.00 0.05 47 1010.5
20260506002502 10 317 0.0 0.0 0.00 0.00 0.05 48 1010.4
20260506002002 10 313 0.0 0.0 0.00 0.00 0.05 47 1010.7
20260506001002 11 310 0.0 0.0 0.00 0.00 0.05 47 1010.4
20260505235001 11 296 0.0 0.0 0.00 0.00 0.05 44 1010.0
20260505232502 11 291 0.0 0.0 0.00 0.00 0.05 46 1009.8
20260505232002 11 323 0.0 0.0 0.00 0.00 0.05 44 1009.7
20260505231002 12 328 1.6 3.2 0.00 0.00 0.05 44 1009.6
20260505225002 12 330 1.6 3.2 0.00 0.00 0.05 43 1009.7
20260505224501 12 221 4.8 6.4 0.00 0.00 0.05 43 1010.0
20260505224002 12 320 1.6 3.2 0.00 0.00 0.05 44 1010.0
20260505223002 12 225 1.6 3.2 0.00 0.00 0.05 43 1009.9
20260505222502 12 111 1.6 3.2 0.00 0.00 0.05 43 1009.7
20260505221502 12 255 1.6 3.2 0.00 0.00 0.05 47 1009.7
20260505220502 12 219 3.2 4.8 0.00 0.00 0.05 46 1009.8
20260505220001 12 298 1.6 3.2 0.00 0.00 0.05 45 1009.7
20260505215502 13 302 0.0 0.0 0.00 0.00 0.05 50 1010.0
20260505215001 13 322 0.0 0.0 0.00 0.00 0.05 50 1009.8
20260505214502 13 3 0.0 0.0 0.00 0.00 0.05 46 1009.8
20260505212501 13 236 1.6 3.2 0.00 0.00 0.05 50 1009.9
20260505211002 13 314 3.2 3.2 0.00 0.00 0.05 52 1009.8
20260505205502 13 253 1.6 3.2 0.00 0.00 0.05 56 1009.9
20260505204502 13 203 3.2 6.4 0.00 0.00 0.05 52 1009.7
20260505204001 13 297 1.6 3.2 0.00 0.00 0.05 55 1009.8
20260505203502 13 234 3.2 3.2 0.00 0.00 0.05 52 1009.6
20260505203001 13 338 0.0 0.0 0.00 0.00 0.05 56 1009.8
20260505202502 13 162 4.8 6.4 0.00 0.00 0.05 56 1009.8
20260505201001 13 244 4.8 4.8 0.00 0.00 0.05 58 1009.8
20260505195002 12 207 4.8 4.8 0.00 0.00 0.05 64 1009.8
20260505194501 12 167 4.8 4.8 0.00 0.00 0.05 62 1009.9
20260505193002 12 220 3.2 4.8 0.00 0.00 0.05 63 1010.0
20260505192501 12 335 1.6 3.2 0.00 0.00 0.05 63 1010.0
20260505192002 12 257 3.2 4.8 0.00 0.00 0.05 63 1009.8
20260505191002 12 338 1.6 3.2 0.00 0.00 0.05 67 1010.0
20260505190502 12 344 0.0 0.0 0.00 0.00 0.05 65 1009.8
20260505190001 12 258 3.2 4.8 0.00 0.00 0.05 68 1009.8
20260505185502 12 219 3.2 4.8 0.00 0.00 0.05 66 1009.8
20260505184001 12 309 1.6 3.2 0.00 0.00 0.05 65 1010.0
20260505183002 12 214 4.8 6.4 0.00 0.00 0.05 65 1009.8
20260505182501 12 275 1.6 3.2 0.00 0.00 0.05 66 1009.6
20260505181501 12 163 3.2 4.8 0.00 0.00 0.05 70 1009.6
20260505180002 11 324 1.6 3.2 0.00 0.00 0.05 71 1009.4
20260505175501 12 231 4.8 6.4 0.00 0.00 0.05 69 1009.5
20260505175002 12 345 0.0 0.0 0.00 0.00 0.05 70 1009.5
20260505174002 12 231 4.8 6.4 0.00 0.00 0.05 68 1009.3
20260505172001 12 302 1.6 3.2 0.00 0.00 0.05 72 1009.4
20260505171002 11 203 3.2 4.8 0.00 0.00 0.05 74 1009.3
20260505170002 11 176 4.8 4.8 0.00 0.00 0.05 74 1009.4
20260505165502 11 241 3.2 3.2 0.00 0.00 0.05 76 1009.4
20260505164501 10 221 4.8 4.8 0.00 0.00 0.05 76 1009.5
20260505164002 10 223 3.2 4.8 0.00 0.00 0.05 78 1009.5
20260505162001 10 308 0.0 0.0 0.00 0.00 0.05 77 1009.7
20260505161502 10 234 3.2 4.8 0.00 0.00 0.05 77 1009.7
20260505161001 10 86 3.2 3.2 0.00 0.00 0.05 78 1009.5
20260505152502 8 63 3.2 3.2 0.00 0.00 0.05 82 1009.5
20260505152001 8 241 3.2 4.8 0.00 0.00 0.05 80 1009.6
20260505151502 8 49 1.6 3.2 0.00 0.00 0.05 82 1009.5
20260505151002 8 69 1.6 3.2 0.18 0.00 0.05 81 1009.5